Terug naar catalogus

STARLINK-37122

ActiefCommunicatieSSO
NORAD 68678·PAYLOAD·🇺🇸 United States

Gelanceerd Apr 11, 2026 vanaf Vandenberg Space Force Base

Loading…

Volgende Passages (komende 24 uur)

TLE

VersSource: CelesTrak SupGP

Epoch: Sep 15, 2026, 04:05 UTC

1 68678C 26077S   26258.17062500 -.00010213  00000+0 -31692-3 0  2581
2 68678  97.2847 128.1665 0001503  96.7943  56.0079 15.33455676    13

Volg STARLINK-37122 in realtime met AllMySat

Download on the App Store